• In Uzbekistan
  • List of Countries
  • For 7 days
  • Water Temperature
  • Satellite Maps
  • Weather Map
  • Weather Widgets
  • user-avatar
    Login

    Hourly Weather Pszczeliny

    Today, 22 February, Friday

    Time Temperature Precipitation Wind Pressure Humidity
    00:00 +2°C° 0.9 mm 2 mps 711 mmHg 92%
    01:00 +2°C° 0.9 mm 2 mps 710 mmHg 94%
    02:00 +2°C° 0 mm 1 mps 710 mmHg 96%
    03:00 +2°C° 0.6 mm 1 mps 710 mmHg 96%
    04:00 +2°C° 0.6 mm 1 mps 709 mmHg 96%
    05:00 +2°C° 0.6 mm 1 mps 709 mmHg 96%
    06:00 +1°C° 0.7 mm 2 mps 710 mmHg 97%
    07:00 -1°C° 0.7 mm 2 mps 710 mmHg 97%
    08:00 -1°C° 0 mm 3 mps 711 mmHg 96%
    09:00 -3°C° 0.3 mm 4 mps 711 mmHg 94%
    10:00 -6°C° 0.3 mm 5 mps 712 mmHg 92%
    11:00 -9°C° 0.3 mm 6 mps 713 mmHg 90%
    12:00 -9°C° 0 mm 7 mps 713 mmHg 85%
    13:00 -9°C° 0 mm 7 mps 714 mmHg 80%
    14:00 -9°C° 0 mm 7 mps 715 mmHg 74%
    15:00 -11°C° 0 mm 7 mps 716 mmHg 73%
    16:00 -11°C° 0 mm 7 mps 716 mmHg 72%
    17:00 -12°C° 0 mm 7 mps 717 mmHg 70%
    18:00 -12°C° 0 mm 7 mps 718 mmHg 69%
    19:00 -13°C° 0 mm 7 mps 718 mmHg 68%
    20:00 -13°C° 0 mm 7 mps 719 mmHg 67%
    21:00 -13°C° 0 mm 7 mps 720 mmHg 68%
    22:00 -13°C° 0 mm 7 mps 720 mmHg 69%
    23:00 -13°C° 0 mm 7 mps 721 mmHg 71%

    Tomorrow, 23 February, Saturday

    Time Temperature Precipitation Wind Pressure Humidity
    00:00 -14°C° 0 mm 7 mps 721 mmHg 72%
    01:00 -14°C° 0 mm 6 mps 722 mmHg 73%
    02:00 -14°C° 0 mm 6 mps 722 mmHg 75%
    03:00 -14°C° 0 mm 6 mps 722 mmHg 76%
    04:00 -14°C° 0 mm 6 mps 723 mmHg 77%
    05:00 -14°C° 0 mm 6 mps 723 mmHg 78%
    06:00 -14°C° 0 mm 6 mps 723 mmHg 79%
    07:00 -14°C° 0 mm 6 mps 724 mmHg 80%
    08:00 -13°C° 0 mm 5 mps 724 mmHg 81%
    09:00 -13°C° 0 mm 5 mps 724 mmHg 79%
    10:00 -12°C° 0 mm 5 mps 725 mmHg 77%
    11:00 -10°C° 0 mm 4 mps 725 mmHg 75%
    12:00 -9°C° 0 mm 4 mps 725 mmHg 73%
    13:00 -9°C° 0 mm 4 mps 725 mmHg 72%
    14:00 -8°C° 0 mm 4 mps 725 mmHg 70%
    15:00 -9°C° 0 mm 4 mps 725 mmHg 71%
    16:00 -8°C° 0 mm 3 mps 725 mmHg 72%
    17:00 -8°C° 0 mm 3 mps 725 mmHg 73%
    18:00 -8°C° 0 mm 2 mps 725 mmHg 77%
    19:00 -9°C° 0 mm 2 mps 725 mmHg 80%
    20:00 -9°C° 0 mm 2 mps 725 mmHg 84%
    21:00 -9°C° 0 mm 1 mps 725 mmHg 85%
    22:00 -9°C° 0 mm 1 mps 725 mmHg 85%
    23:00 -9°C° 0 mm 1 mps 725 mmHg 86%

    Day after tomorrow, 24 February, Sunday

    Time Temperature Precipitation Wind Pressure Humidity
    00:00 -9°C° 0 mm 1 mps 725 mmHg 85%
    01:00 -9°C° 0 mm 1 mps 725 mmHg 84%
    02:00 -9°C° 0 mm 1 mps 725 mmHg 83%
    03:00 -9°C° 0 mm 0 mps 724 mmHg 80%
    04:00 -9°C° 0 mm 0 mps 724 mmHg 77%
    05:00 -9°C° 0 mm 0 mps 724 mmHg 74%
    06:00 -8°C° 0 mm 0 mps 724 mmHg 72%
    07:00 -8°C° 0 mm 0 mps 724 mmHg 70%
    08:00 -8°C° 0 mm 0 mps 724 mmHg 68%
    09:00 -6°C° 0 mm 1 mps 724 mmHg 60%
    10:00 -3°C° 0 mm 1 mps 724 mmHg 53%
    11:00 0°C° 0 mm 1 mps 724 mmHg 46%
    12:00 0°C° 0 mm 1 mps 724 mmHg 48%
    13:00 +1°C° 0 mm 1 mps 724 mmHg 50%
    14:00 +2°C° 0 mm 1 mps 724 mmHg 52%
    15:00 +2°C° 0 mm 1 mps 724 mmHg 55%
    16:00 +1°C° 0 mm 1 mps 723 mmHg 58%
    17:00 +1°C° 0 mm 1 mps 723 mmHg 61%
    18:00 0°C° 0 mm 1 mps 723 mmHg 62%
    19:00 -2°C° 0 mm 1 mps 723 mmHg 64%
    20:00 -3°C° 0 mm 1 mps 723 mmHg 66%
    21:00 -3°C° 0 mm 1 mps 723 mmHg 65%
    22:00 -3°C° 0 mm 1 mps 723 mmHg 63%
    23:00 -4°C° 0 mm 0 mps 723 mmHg 62%

    25 February, Monday

    Time Temperature Precipitation Wind Pressure Humidity
    00:00 -4°C° 0 mm 0 mps 723 mmHg 62%
    01:00 -4°C° 0 mm 0 mps 723 mmHg 62%
    02:00 -4°C° 0 mm 0 mps 723 mmHg 62%
    03:00 -3°C° 0 mm 1 mps 723 mmHg 64%
    04:00 -2°C° 0 mm 1 mps 722 mmHg 65%
    05:00 -2°C° 0 mm 1 mps 722 mmHg 67%
    06:00 -2°C° 0 mm 1 mps 722 mmHg 68%
    07:00 -2°C° 0 mm 1 mps 722 mmHg 70%
    08:00 -2°C° 0 mm 1 mps 722 mmHg 72%
    09:00 0°C° 0 mm 1 mps 722 mmHg 70%
    10:00 -1°C° 0 mm 2 mps 722 mmHg 69%
    11:00 +2°C° 0 mm 2 mps 722 mmHg 67%
    12:00 +3°C° 0 mm 2 mps 722 mmHg 71%
    13:00 +3°C° 0 mm 2 mps 722 mmHg 74%
    14:00 +2°C° 0 mm 3 mps 722 mmHg 77%
    15:00 +3°C° 0 mm 2 mps 722 mmHg 80%
    16:00 +3°C° 0 mm 2 mps 722 mmHg 83%
    17:00 +2°C° 0 mm 2 mps 721 mmHg 86%
    18:00 +1°C° 0 mm 2 mps 721 mmHg 89%
    19:00 +1°C° 0 mm 2 mps 721 mmHg 93%
    20:00 -1°C° 0 mm 2 mps 721 mmHg 96%
    21:00 -2°C° 0 mm 2 mps 721 mmHg 96%
    22:00 0°C° 0 mm 1 mps 721 mmHg 96%
    23:00 -1°C° 0 mm 1 mps 721 mmHg 97%

    26 February, Tuesday

    Time Temperature Precipitation Wind Pressure Humidity
    00:00 -1°C° 0 mm 1 mps 720 mmHg 96%
    01:00 -1°C° 0 mm 1 mps 720 mmHg 95%
    02:00 -1°C° 0 mm 1 mps 720 mmHg 94%
    03:00 -1°C° 0 mm 1 mps 719 mmHg 93%
    04:00 0°C° 0 mm 1 mps 718 mmHg 91%
    05:00 0°C° 0 mm 1 mps 718 mmHg 90%
    06:00 0°C° 0 mm 1 mps 717 mmHg 88%
    07:00 -1°C° 0 mm 2 mps 717 mmHg 86%
    08:00 -1°C° 0 mm 2 mps 717 mmHg 85%
    09:00 +2°C° 0 mm 2 mps 716 mmHg 78%
    10:00 +2°C° 0 mm 3 mps 716 mmHg 72%
    11:00 +3°C° 0 mm 3 mps 715 mmHg 65%
    12:00 +3°C° 0 mm 4 mps 715 mmHg 67%
    13:00 +3°C° 0 mm 4 mps 714 mmHg 69%
    14:00 +3°C° 0 mm 4 mps 714 mmHg 71%
    15:00 +3°C° 0 mm 4 mps 714 mmHg 75%
    16:00 +1°C° 0 mm 4 mps 713 mmHg 79%
    17:00 +1°C° 0 mm 4 mps 713 mmHg 83%
    18:00 0°C° 0 mm 4 mps 713 mmHg 86%
    19:00 0°C° 0 mm 4 mps 713 mmHg 89%
    20:00 -1°C° 0 mm 4 mps 713 mmHg 92%
    21:00 -1°C° 0 mm 4 mps 713 mmHg 92%
    22:00 -2°C° 0 mm 5 mps 713 mmHg 91%
    23:00 -2°C° 0 mm 5 mps 713 mmHg 90%

    27 February, Wednesday

    Time Temperature Precipitation Wind Pressure Humidity
    00:00 -2°C° 0 mm 5 mps 713 mmHg 88%
    01:00 -4°C° 0 mm 5 mps 713 mmHg 87%
    02:00 -4°C° 0 mm 5 mps 713 mmHg 85%
    03:00 -4°C° 0 mm 5 mps 713 mmHg 85%
    04:00 -4°C° 0 mm 5 mps 713 mmHg 85%
    05:00 -4°C° 0 mm 5 mps 713 mmHg 86%
    06:00 -4°C° 0 mm 5 mps 713 mmHg 86%
    07:00 -5°C° 0 mm 5 mps 713 mmHg 87%
    08:00 -5°C° 0 mm 5 mps 713 mmHg 87%
    09:00 -4°C° 0.1 mm 5 mps 713 mmHg 86%
    10:00 -4°C° 0.1 mm 5 mps 714 mmHg 85%
    11:00 -4°C° 0.1 mm 5 mps 714 mmHg 84%
    12:00 -2°C° 0 mm 5 mps 714 mmHg 83%
    13:00 -2°C° 0 mm 5 mps 714 mmHg 82%
    14:00 -1°C° 0 mm 5 mps 714 mmHg 80%
    15:00 -2°C° 0 mm 4 mps 714 mmHg 81%
    16:00 -2°C° 0 mm 4 mps 714 mmHg 83%
    17:00 -1°C° 0 mm 3 mps 714 mmHg 84%
    18:00 -1°C° 0 mm 2 mps 714 mmHg 87%
    19:00 -2°C° 0 mm 2 mps 714 mmHg 90%
    20:00 0°C° 0 mm 1 mps 714 mmHg 93%
    21:00 -1°C° 0 mm 1 mps 713 mmHg 93%
    22:00 -1°C° 0 mm 1 mps 713 mmHg 94%
    23:00 -2°C° 0 mm 0 mps 713 mmHg 94%
    Show more